Paris / Charles De Gaulle, France

11:05 AM CEST on August 20, 2017 (GMT +0200)
Charles de Gaulle

Weather History for LFPG - June, 2014

Change the Weather History Date:

Thursday, June 5, 2014

  Actual Average Record
Temperature  
Mean Temperature 57 °F -  
Max Temperature 66 °F 72 °F 91 °F (2015)
Min Temperature 48 °F 54 °F 44 °F (2012)
Degree Days  
Heating Degree Days 8    
Growing Degree Days 7 (Base 50)    
Moisture  
Dew Point 41 °F    
Average Humidity 53    
Maximum Humidity 82    
Minimum Humidity 21    
Precipitation  
Precipitation 0.00 in - - ()
Sea Level Pressure  
Sea Level Pressure 29.94 in    
Wind  
Wind Speed 9 mph ()    
Max Wind Speed 13 mph    
Max Gust Speed -    
Visibility 13.1 miles    
Events      
Averages and records for this station are not official NWS values.
T = Trace of Precipitation, MM = Missing Value Source: Averaged Metar Reports

Daily Weather History Graph

Daily Weather History Graph

Search for Another Location

Airport or City:

Trip Planner

Search our weather history database for the weather conditions in past years. The results will help you decide how hot, cold, wet, or windy it might be!

Date:

Astronomy

Jun. 05, 2014 Rise Set
Actual Time 5:47 AM CEST 9:49 PM CEST
Civil Twilight 5:06 AM CEST 10:31 PM CEST
Nautical Twilight 4:07 AM CEST 11:29 PM CEST
Astronomical Twilight 2:25 AM CEST 1:16 AM CEST
Moon 1:17 PM CEST (6/5) 1:43 AM CEST (6/5)
Length of Visible Light 17h 25m
Length of Day
16h 01m
Waxing Crescent, 46% of the Moon is Illuminated
Jun 5
Waxing Crescent
Jun 5
First Quarter
Jun 13
Full
Jun 19
Last Quarter
Jun 27
New

Hourly Weather History & Observations

Time (CEST) Temp. Dew Point Humidity Pressure Visibility Wind Dir Wind Speed Gust Speed Precip Events Conditions
12:00 AM 52 °F 41 °F 55% 29.90 in 19 mi SW 9.2 mph - -  
12:00 AM 51.8 °F 41.0 °F 67% 29.89 in - SW 9.2 mph - N/A   Clear
12:30 AM 51.8 °F 41.0 °F 67% 29.89 in - SW 9.2 mph - N/A   Clear
1:00 AM 51 °F 40 °F 56% 29.91 in 19 mi SW 8.1 mph - -  
1:00 AM 51.8 °F 41.0 °F 67% 29.89 in - SW 9.2 mph - N/A   Clear
1:30 AM 51.8 °F 41.0 °F 67% 29.89 in - SW 10.4 mph - N/A   Clear
2:00 AM 51 °F 41 °F 59% 29.91 in 19 mi SW 10.4 mph - -   Scattered Clouds
2:00 AM 50.0 °F 41.0 °F 71% 29.89 in - SW 10.4 mph - N/A   Clear
2:30 AM 50.0 °F 41.0 °F 71% 29.89 in - WSW 9.2 mph - N/A   Clear
3:00 AM 50 °F 41 °F 63% 29.91 in 19 mi SW 12.7 mph - -   Scattered Clouds
3:00 AM 50.0 °F 41.0 °F 71% 29.89 in - SW 12.7 mph - N/A   Clear
3:30 AM 50.0 °F 41.0 °F 71% 29.89 in - SW 11.5 mph - N/A   Clear
4:00 AM 49 °F 41 °F 67% 29.92 in 19 mi SW 11.5 mph - -   Scattered Clouds
4:00 AM 50.0 °F 41.0 °F 71% 29.92 in - SW 11.5 mph - N/A   Clear
4:30 AM 50.0 °F 41.0 °F 71% 29.92 in - SW 12.7 mph - N/A   Clear
5:00 AM 49 °F 42 °F 69% 29.93 in 19 mi SW 10.4 mph - -   Scattered Clouds
5:00 AM 50.0 °F 42.8 °F 76% 29.92 in - SW 10.4 mph - N/A   Clear
5:30 AM 50.0 °F 42.8 °F 76% 29.89 in - SW 11.5 mph - N/A   Clear
6:00 AM 49 °F 42 °F 71% 29.93 in 19 mi SW 9.2 mph - -   Scattered Clouds
6:00 AM 48.2 °F 42.8 °F 82% 29.92 in - SW 9.2 mph - N/A   Clear
6:30 AM 50.0 °F 42.8 °F 76% 29.92 in - SW 11.5 mph - N/A   Clear
7:00 AM 50 °F 43 °F 70% 29.93 in 16 mi SW 11.5 mph - -   Scattered Clouds
7:00 AM 50.0 °F 42.8 °F 76% 29.92 in - SW 11.5 mph - N/A   Clear
7:30 AM 50.0 °F 42.8 °F 76% 29.92 in - WSW 10.4 mph - N/A   Clear
8:00 AM 52 °F 44 °F 66% 29.95 in 16 mi WSW 10.4 mph - -   Scattered Clouds
8:00 AM 51.8 °F 44.6 °F 76% 29.92 in 6.2 mi WSW 10.4 mph - N/A   Mostly Cloudy
8:30 AM 53.6 °F 44.6 °F 72% 29.95 in 6.2 mi WSW 11.5 mph - N/A   Mostly Cloudy
9:00 AM 54 °F 45 °F 62% 29.96 in 16 mi WSW 10.4 mph - -   Scattered Clouds
9:00 AM 53.6 °F 44.6 °F 72% 29.95 in 6.2 mi WSW 11.5 mph - N/A   Mostly Cloudy
9:30 AM 55.4 °F 44.6 °F 67% 29.95 in 6.2 mi WSW 9.2 mph - N/A   Mostly Cloudy
10:00 AM 56 °F 44 °F 55% 29.96 in 16 mi WSW 8.1 mph - -   Scattered Clouds
10:00 AM 55.4 °F 44.6 °F 67% 29.95 in 6.2 mi WSW 9.2 mph - N/A   Scattered Clouds
10:30 AM 57.2 °F 44.6 °F 63% 29.95 in 6.2 mi WSW 9.2 mph - N/A   Scattered Clouds
11:00 AM 58 °F 44 °F 49% 29.96 in 16 mi WSW 11.5 mph - -   Partly Cloudy
11:00 AM 59.0 °F 42.8 °F 55% 29.95 in 6.2 mi WSW 11.5 mph - N/A   Scattered Clouds
11:30 AM 60.8 °F 42.8 °F 52% 29.95 in 6.2 mi SW 12.7 mph - N/A   Scattered Clouds
12:00 PM 60 °F 41 °F 38% 29.97 in 16 mi SW 12.7 mph - -   Partly Cloudy
12:00 PM 60.8 °F 41.0 °F 48% 29.95 in 6.2 mi WSW 12.7 mph - N/A   Scattered Clouds
12:30 PM 60.8 °F 41.0 °F 48% 29.98 in 6.2 mi WSW 12.7 mph - N/A   Scattered Clouds
1:00 PM 62 °F 41 °F 34% 29.97 in 16 mi SSW 10.4 mph - -   Mostly Cloudy
1:00 PM 62.6 °F 41.0 °F 45% 29.98 in 6.2 mi SW 9.2 mph - N/A   Scattered Clouds
1:30 PM 62.6 °F 41.0 °F 45% 29.98 in 6.2 mi SSW 10.4 mph - N/A   Scattered Clouds
2:00 PM 64 °F 42 °F 33% 29.97 in 16 mi SW 8.1 mph - -   Mostly Cloudy
2:00 PM 64.4 °F 39.2 °F 40% 29.98 in 6.2 mi SW 8.1 mph - N/A   Scattered Clouds
2:30 PM 64.4 °F 41.0 °F 42% 29.98 in - Variable 5.8 mph - N/A   Clear
3:00 PM 65 °F 40 °F 29% 29.97 in 16 mi West 3.5 mph - -   Mostly Cloudy
3:00 PM 64.4 °F 39.2 °F 40% 29.98 in - Variable 3.5 mph - N/A   Clear
3:30 PM 64.4 °F 41.0 °F 42% 29.95 in - South 6.9 mph - N/A   Clear
4:00 PM 65 °F 38 °F 25% 29.97 in 16 mi SSW 3.5 mph - -   Mostly Cloudy
4:00 PM 64.4 °F 37.4 °F 37% 29.98 in - Variable 3.5 mph - N/A   Clear
4:30 PM 64.4 °F 37.4 °F 37% 29.95 in - SSW 8.1 mph - N/A   Clear
5:00 PM 66 °F 38 °F 24% 29.97 in 16 mi South 6.9 mph - -   Partly Cloudy
5:00 PM 66.2 °F 37.4 °F 35% 29.95 in - South 6.9 mph - N/A   Clear
5:30 PM 66.2 °F 37.4 °F 35% 29.95 in - WSW 8.1 mph - N/A   Clear
6:00 PM 66 °F 37 °F 23% 29.96 in 16 mi SSW 10.4 mph - -   Partly Cloudy
6:00 PM 66.2 °F 37.4 °F 35% 29.95 in - SSW 10.4 mph - N/A   Clear
6:30 PM 66.2 °F 39.2 °F 37% 29.95 in - Variable 3.5 mph - N/A   Clear
7:00 PM 66 °F 36 °F 21% 29.95 in 16 mi SSW 5.8 mph - -   Scattered Clouds
7:00 PM 66.2 °F 37.4 °F 35% 29.95 in - SSW 6.9 mph - N/A   Clear
7:30 PM 66.2 °F 39.2 °F 37% 29.95 in - South 5.8 mph - N/A   Clear
8:00 PM 66 °F 38 °F 24% 29.95 in 16 mi SSE 5.8 mph - -   Scattered Clouds
8:00 PM 66.2 °F 37.4 °F 35% 29.95 in - SSE 6.9 mph - N/A   Clear
8:30 PM 64.4 °F 39.2 °F 40% 29.95 in - SSE 6.9 mph - N/A   Clear
9:00 PM 64 °F 40 °F 30% 29.96 in 16 mi SSE 6.9 mph - -   Clear
9:00 PM 64.4 °F 41.0 °F 42% 29.95 in - SSE 8.1 mph - N/A   Clear
9:30 PM 64.4 °F 41.0 °F 42% 29.95 in - SE 6.9 mph - N/A   Clear
10:00 PM 62 °F 42 °F 37% 29.96 in 16 mi SSE 5.8 mph - -   Scattered Clouds
10:00 PM 62.6 °F 42.8 °F 48% 29.95 in - SSE 5.8 mph - N/A   Clear
10:30 PM 60.8 °F 42.8 °F 52% 29.98 in - SE 5.8 mph - N/A   Clear
11:00 PM 61 °F 43 °F 40% 29.98 in 16 mi SE 4.6 mph - -   Clear
11:00 PM 60.8 °F 44.6 °F 55% 29.98 in - SE 4.6 mph - N/A   Clear
11:30 PM 60.8 °F 44.6 °F 55% 29.98 in - East 5.8 mph - N/A   Clear